This demonstration page uses our WeatherBlox Daily Observations layout. Learn more.

Hourly Observations for March 29, 2019

Temp ( °F °C ) Dew Point ( °F °C ) Humidity (%) Winds ( mph kmh ) Pressure ( in mb ) Visibility ( mi km ) Precip ( " mm )
12:15 am 00:15 Cloudy 43 6.2 36 2 75 75 ENE 17 28 30.16 1021 10 16.0934 0 0
12:35 am 00:35 Cloudy 43 6 35 1.5 73 73 NE 17 28 30.15 1021 10 16.0934 0 0
12:55 am 00:55 Cloudy 42 5.7 35 1.5 75 75 NE 18 30 30.16 1021 10 16.0934 0 0
1:15 am 01:15 Cloudy 42 5.6 34 1.3 74 74 NE 18 30 30.18 1022 10 16.0934 0 0
1:35 am 01:35 Cloudy 42 5.5 35 1.5 76 76 NE 17 28 30.18 1022 10 16.0934 0 0
1:55 am 01:55 Cloudy 42 5.3 35 1.5 77 77 ENE 15 24 30.18 1022 10 16.0934 0 0
2:15 am 02:15 Cloudy 41 5.2 35 1.5 77 77 ENE 10 17 30.19 1022 10 16.0934 0 0
2:35 am 02:35 Cloudy 41 5.1 35 1.6 78 78 ENE 14 22 30.17 1022 10 16.0934 0 0
2:55 am 02:55 Cloudy 41 5.1 35 1.5 78 78 NE 15 24 30.17 1022 10 16.0934 0 0
3:15 am 03:15 Cloudy 41 5.1 35 1.6 78 78 NE 10 17 30.19 1022 10 16.0934 0 0
3:35 am 03:35 Cloudy 41 5 35 1.6 79 79 NE 14 22 30.17 1022 10 16.0934 0 0
3:55 am 03:55 Cloudy 41 5 35 1.7 79 79 NE 14 22 30.16 1021 10 16.0934 0 0
4:15 am 04:15 Cloudy 41 4.8 35 1.8 81 81 NE 15 24 30.15 1021 10 16.0934 0 0
4:35 am 04:35 Cloudy 40 4.6 35 1.7 82 82 NE 18 30 30.14 1021 10 16.0934 0 0
4:55 am 04:55 Cloudy 40 4.5 35 1.6 82 82 NE 16 26 30.13 1020 10 16.0934 0 0
5:15 am 05:15 Mostly Cloudy 40 4.2 35 1.5 83 83 NE 20 31 30.12 1020 10 16.0934 0 0
5:35 am 05:35 Cloudy 40 4.2 35 1.6 83 83 ENE 16 26 30.13 1020 10 16.0934 0 0
5:55 am 05:55 Cloudy 39 4 35 1.5 84 84 ENE 22 35 30.1 1019 10 16.0934 0 0
6:15 am 06:15 Cloudy 39 3.9 35 1.6 85 85 ENE 24 39 30.1 1019 10 16.0934 0 0
6:35 am 06:35 Cloudy with Nearby Thunderstorms 39 3.7 35 1.7 87 87 ENE 18 30 30.11 1020 10 16.0934 0 0
6:55 am 06:55 Cloudy 38 3.5 36 2 90 90 ENE 23 37 30.1 1019 10 16.0934 0 0
7:15 am 07:15 Cloudy 38 3.2 35 1.8 91 91 ENE 18 30 30.11 1020 10 16.0934 0 0
7:35 am 07:35 Cloudy with Light Rain 38 3.2 35 1.7 90 90 NE 14 22 30.12 1020 10 16.0934 0 0
7:55 am 07:55 Cloudy 37 3 36 2 93 93 NE 15 24 30.13 1020 10 16.0934 0 0
8:15 am 08:15 Cloudy with Light Rain 37 3 36 2.1 94 94 NE 14 22 30.15 1021 10 16.0934 0 0
8:35 am 08:35 Cloudy 37 2.8 36 2.2 96 96 NE 18 30 30.12 1020 10 16.0934 0 0
8:55 am 08:55 Cloudy with Light Drizzle 37 2.6 36 2.1 97 97 NE 16 26 30.11 1020 10 16.0934 0 0
9:15 am 09:15 Cloudy 36 2.2 35 1.4 95 95 NE 18 30 30.13 1020 10 16.0934 0 0
9:35 am 09:35 Cloudy with Light Rain 36 2.1 35 1.7 97 97 ENE 15 24 30.13 1020 4 6.43736 0.02 0.508
9:55 am 09:55 Cloudy with Light Rain 35 1.7 34 1.3 97 97 NE 16 26 30.17 1022 7 11.26538 0.03 0.762
10:15 am 10:15 Cloudy with Rain 35 1.5 34 1.1 97 97 NE 14 22 30.15 1021 2 3.21868 0.06 1.524
10:35 am 10:35 Cloudy with Light Rain 34 1.2 34 1 99 99 NE 14 22 30.15 1021 5 8.0467 0.09 2.286
10:55 am 10:55 Cloudy with Nearby Thunderstorms 34 1.2 34 1 99 99 NE 18 30 30.15 1021 4 6.43736 0.1 2.54
11:15 am 11:15 Cloudy with Drizzle 35 1.4 34 1.1 98 98 NNE 13 20 30.16 1021 5 8.0467 0.01 0.254
11:35 am 11:35 Cloudy with Light Rain 34 1.2 33 0.8 97 97 NE 17 28 30.15 1021 7 11.26538 0.01 0.254
11:55 am 11:55 Cloudy 34 1.1 34 0.9 99 99 NE 18 30 30.13 1020 10 16.0934 0.01 0.254
12:15 pm 12:15 Cloudy 34 1.2 33 0.7 97 97 NE 16 26 30.14 1021 10 16.0934 0 0
12:35 pm 12:35 Cloudy 34 1.3 33 0.8 97 97 NE 18 30 30.12 1020 10 16.0934 0 0
12:55 pm 12:55 Cloudy 34 1 33 0.3 95 95 NE 18 30 30.13 1020 10 16.0934 0 0
1:15 pm 13:15 Cloudy 34 1.1 33 0.5 96 96 NE 17 28 30.1 1019 10 16.0934 0 0
1:35 pm 13:35 Cloudy 34 1.2 33 0.6 96 96 NE 18 30 30.11 1020 10 16.0934 0 0
1:55 pm 13:55 Cloudy 34 1.2 33 0.5 95 95 NE 18 30 30.1 1019 10 16.0934 0 0
2:15 pm 14:15 Cloudy 35 1.5 33 0.7 94 94 NE 18 30 30.1 1019 10 16.0934 0 0
2:35 pm 14:35 Cloudy 35 1.7 33 0.7 93 93 NE 17 28 30.08 1019 10 16.0934 0 0
2:55 pm 14:55 Cloudy 35 1.8 33 0.8 93 93 NE 20 31 30.07 1018 10 16.0934 0 0
3:15 pm 15:15 Cloudy 35 1.8 33 0.7 93 93 NE 18 30 30.05 1018 10 16.0934 0 0
3:35 pm 15:35 Cloudy 36 2 33 0.8 92 92 NE 17 28 30.05 1017 10 16.0934 0 0
3:55 pm 15:55 Cloudy 35 1.7 33 0.5 92 92 NNE 17 28 30.06 1018 10 16.0934 0 0
4:15 pm 16:15 Cloudy 35 1.8 33 0.6 92 92 NNE 18 30 30.05 1018 10 16.0934 0 0
4:35 pm 16:35 Cloudy 35 1.6 33 0.5 93 93 NNE 14 22 30.06 1018 10 16.0934 0 0
4:55 pm 16:55 Cloudy with Light Drizzle 35 1.5 33 0.7 94 94 NNE 15 24 30.06 1018 2.5 4.02335 0 0
5:15 pm 17:15 Cloudy with Light Rain 34 1.3 34 1.1 99 99 NNE 15 24 30.07 1018 1.75 2.816345 0 0
5:35 pm 17:35 Cloudy with Light Rain 34 1 34 1 100 100 NNE 14 22 30.08 1018 1.75 2.816345 0.01 0.254
5:55 pm 17:55 Cloudy with Light Drizzle 33 0.8 33 0.8 100 100 N 17 28 30.09 1019 2 3.21868 0.01 0.254
6:15 pm 18:15 Cloudy with Light Drizzle 33 0.5 33 0.5 100 100 N 12 19 30.1 1019 2.5 4.02335 0 0
6:35 pm 18:35 Cloudy with Light Rain 32 0 32 0 100 100 NNE 20 31 30.1 1019 2.5 4.02335 0 0
6:55 pm 18:55 Cloudy with Light Wintry Mix 32 0 32 0 100 100 N 17 28 30.11 1020 3 4.82802 0.01 0.254
7:15 pm 19:15 Cloudy with Light Wintry Mix 32 -0.1 32 -0.1 100 100 N 21 33 30.12 1020 5 8.0467 0 0
7:35 pm 19:35 Cloudy 32 -0.2 32 -0.2 100 100 N 16 26 30.14 1021 7 11.26538 0 0
7:55 pm 19:55 Cloudy with Light Wintry Mix 32 -0.1 32 -0.1 100 100 N 16 26 30.15 1021 4 6.43736 0 0
8:15 pm 20:15 Cloudy with Light Wintry Mix 32 -0.2 32 -0.2 100 100 N 18 30 30.17 1022 3 4.82802 0 0
8:35 pm 20:35 Cloudy with Light Snow 31 -0.4 31 -0.4 100 100 N 18 30 30.16 1021 2 3.21868 0 0
8:55 pm 20:55 Cloudy with Light Snow 31 -0.5 31 -0.5 100 100 N 15 24 30.17 1022 2.5 4.02335 0 0
9:15 pm 21:15 Cloudy with Mist and Fog 32 -0.2 32 -0.2 100 100 N 15 24 30.18 1022 5 8.0467 0 0
9:35 pm 21:35 Cloudy with Mist and Fog 32 -0.2 32 -0.2 100 100 N 12 19 30.18 1022 5 8.0467 0 0
9:55 pm 21:55 Cloudy 32 0 32 0 100 100 N 18 30 30.19 1022 7 11.26538 0 0
10:15 pm 22:15 Windy with Snow Likely 32 0 32 -0.1 99 99 NNE 20 31 30.2 1023 3 4.82802 0 0
10:35 pm 22:35 Cloudy with Light Snow 32 -0.2 32 -0.2 100 100 N 17 28 30.21 1023 1.5 2.41401 0.01 0.254
10:55 pm 22:55 Cloudy with Light Snow 32 -0.2 32 -0.2 100 100 N 13 20 30.22 1023 1.5 2.41401 0.01 0.254
11:15 pm 23:15 Windy with Snow Likely 31 -0.5 31 -0.5 100 100 NNE 20 31 30.22 1023 1.25 2.011675 0.01 0.254
11:35 pm 23:35 Cloudy with Light Snow 31 -0.7 31 -0.7 100 100 N 18 30 30.22 1023 1.25 2.011675 0.01 0.254
11:55 pm 23:55 Windy with Snow Likely 31 -0.7 31 -0.7 100 100 N 20 31 30.22 1023 2.5 4.02335 0.01 0.254

Powered by AerisWeather